• In Austria
  • List of Countries
  • For 7 days
  • Water Temperature
  • Satellite Maps
  • Weather Map
  • News
  • Weather Widgets
  • user-avatar
    Login

    Hourly Weather Vratsa

    Today, 12 December, Tuesday

    Time Temperature Precipitation Wind Pressure Humidity
    00:00 +2°C° 0 mm 2 mps 708 mmHg 68%
    01:00 +2°C° 0 mm 2 mps 709 mmHg 68%
    02:00 +1°C° 0 mm 2 mps 708 mmHg 73%
    03:00 +2°C° 0 mm 2 mps 708 mmHg 73%
    04:00 +2°C° 0 mm 2 mps 708 mmHg 74%
    05:00 +2°C° 0 mm 2 mps 708 mmHg 75%
    06:00 +2°C° 0 mm 2 mps 708 mmHg 75%
    07:00 +2°C° 0 mm 2 mps 708 mmHg 76%
    08:00 +3°C° 0 mm 2 mps 708 mmHg 74%
    09:00 +5°C° 0 mm 2 mps 708 mmHg 72%
    10:00 +6°C° 0 mm 2 mps 708 mmHg 70%
    11:00 +8°C° 0 mm 2 mps 709 mmHg 68%
    12:00 +10°C° 0 mm 1 mps 709 mmHg 67%
    13:00 +11°C° 0 mm 1 mps 709 mmHg 66%
    14:00 +12°C° 0 mm 2 mps 709 mmHg 66%
    15:00 +9°C° 0 mm 2 mps 709 mmHg 70%
    16:00 +9°C° 0 mm 1 mps 709 mmHg 74%
    17:00 +8°C° 0 mm 1 mps 709 mmHg 78%
    18:00 +7°C° 0 mm 1 mps 709 mmHg 78%
    19:00 +6°C° 0 mm 2 mps 709 mmHg 79%
    20:00 +6°C° 0 mm 2 mps 709 mmHg 79%
    21:00 +6°C° 0 mm 2 mps 709 mmHg 80%
    22:00 +5°C° 0 mm 2 mps 709 mmHg 80%
    23:00 +5°C° 0 mm 2 mps 709 mmHg 80%

    Tomorrow, 13 December, Wednesday

    Time Temperature Precipitation Wind Pressure Humidity
    00:00 +5°C° 0 mm 2 mps 709 mmHg 81%
    01:00 +5°C° 0 mm 2 mps 709 mmHg 81%
    02:00 +5°C° 0 mm 2 mps 709 mmHg 81%
    03:00 +5°C° 0 mm 2 mps 709 mmHg 82%
    04:00 +5°C° 0 mm 2 mps 709 mmHg 82%
    05:00 +4°C° 0 mm 2 mps 709 mmHg 82%
    06:00 +4°C° 0 mm 2 mps 709 mmHg 82%
    07:00 +4°C° 0 mm 2 mps 709 mmHg 82%
    08:00 +4°C° 0 mm 2 mps 709 mmHg 82%
    09:00 +6°C° 0 mm 2 mps 709 mmHg 77%
    10:00 +8°C° 0 mm 2 mps 710 mmHg 73%
    11:00 +9°C° 0 mm 2 mps 710 mmHg 68%
    12:00 +11°C° 0 mm 1 mps 709 mmHg 66%
    13:00 +12°C° 0 mm 1 mps 709 mmHg 64%
    14:00 +13°C° 0 mm 1 mps 708 mmHg 62%
    15:00 +11°C° 0 mm 1 mps 708 mmHg 66%
    16:00 +10°C° 0 mm 1 mps 708 mmHg 70%
    17:00 +9°C° 0 mm 1 mps 708 mmHg 73%
    18:00 +9°C° 0 mm 1 mps 708 mmHg 74%
    19:00 +9°C° 0 mm 1 mps 707 mmHg 74%
    20:00 +8°C° 0 mm 1 mps 707 mmHg 74%
    21:00 +8°C° 0 mm 1 mps 707 mmHg 75%
    22:00 +8°C° 0 mm 1 mps 707 mmHg 76%
    23:00 +7°C° 0 mm 2 mps 706 mmHg 76%

    Day after tomorrow, 14 December, Thursday

    Time Temperature Precipitation Wind Pressure Humidity
    00:00 +7°C° 0 mm 1 mps 706 mmHg 79%
    01:00 +7°C° 0 mm 1 mps 706 mmHg 81%
    02:00 +7°C° 0 mm 1 mps 706 mmHg 83%
    03:00 +6°C° 0.1 mm 1 mps 705 mmHg 85%
    04:00 +6°C° 0.1 mm 1 mps 705 mmHg 87%
    05:00 +6°C° 0.1 mm 1 mps 705 mmHg 88%
    06:00 +5°C° 0 mm 1 mps 705 mmHg 89%
    07:00 +5°C° 0 mm 1 mps 705 mmHg 89%
    08:00 +5°C° 0 mm 1 mps 705 mmHg 90%
    09:00 +6°C° 0 mm 1 mps 705 mmHg 84%
    10:00 +8°C° 0 mm 1 mps 706 mmHg 79%
    11:00 +8°C° 0 mm 2 mps 706 mmHg 73%
    12:00 +9°C° 0 mm 2 mps 706 mmHg 69%
    13:00 +10°C° 0 mm 2 mps 706 mmHg 64%
    14:00 +10°C° 0 mm 2 mps 705 mmHg 60%
    15:00 +9°C° 0 mm 2 mps 705 mmHg 65%
    16:00 +9°C° 0 mm 1 mps 705 mmHg 69%
    17:00 +8°C° 0 mm 1 mps 705 mmHg 73%
    18:00 +7°C° 0 mm 1 mps 705 mmHg 74%
    19:00 +6°C° 0 mm 2 mps 706 mmHg 75%
    20:00 +5°C° 0 mm 2 mps 706 mmHg 76%
    21:00 +5°C° 0 mm 2 mps 706 mmHg 76%
    22:00 +5°C° 0 mm 2 mps 706 mmHg 76%
    23:00 +4°C° 0 mm 2 mps 706 mmHg 76%

    15 December, Friday

    Time Temperature Precipitation Wind Pressure Humidity
    00:00 +4°C° 0 mm 2 mps 706 mmHg 75%
    01:00 +4°C° 0 mm 2 mps 706 mmHg 75%
    02:00 +4°C° 0 mm 2 mps 706 mmHg 75%
    03:00 +4°C° 0 mm 2 mps 705 mmHg 74%
    04:00 +4°C° 0 mm 2 mps 705 mmHg 74%
    05:00 +4°C° 0 mm 2 mps 705 mmHg 74%
    06:00 +4°C° 0 mm 2 mps 705 mmHg 73%
    07:00 +4°C° 0 mm 2 mps 705 mmHg 73%
    08:00 +4°C° 0 mm 2 mps 705 mmHg 73%
    09:00 +6°C° 0 mm 2 mps 705 mmHg 68%
    10:00 +7°C° 0 mm 2 mps 705 mmHg 62%
    11:00 +9°C° 0 mm 3 mps 705 mmHg 57%
    12:00 +10°C° 0 mm 3 mps 705 mmHg 56%
    13:00 +10°C° 0 mm 2 mps 704 mmHg 55%
    14:00 +12°C° 0 mm 2 mps 703 mmHg 54%
    15:00 +10°C° 0 mm 2 mps 703 mmHg 58%
    16:00 +9°C° 0 mm 2 mps 703 mmHg 62%
    17:00 +8°C° 0 mm 2 mps 702 mmHg 66%
    18:00 +8°C° 0 mm 2 mps 702 mmHg 67%
    19:00 +7°C° 0 mm 2 mps 702 mmHg 68%
    20:00 +7°C° 0 mm 2 mps 702 mmHg 69%
    21:00 +7°C° 0 mm 2 mps 702 mmHg 69%
    22:00 +7°C° 0 mm 3 mps 702 mmHg 68%
    23:00 +7°C° 0 mm 3 mps 702 mmHg 67%

    16 December, Saturday

    Time Temperature Precipitation Wind Pressure Humidity
    00:00 +7°C° 0 mm 3 mps 701 mmHg 67%
    01:00 +7°C° 0 mm 3 mps 701 mmHg 66%
    02:00 +7°C° 0 mm 3 mps 701 mmHg 66%
    03:00 +7°C° 0 mm 3 mps 701 mmHg 67%
    04:00 +7°C° 0 mm 3 mps 701 mmHg 67%
    05:00 +7°C° 0 mm 3 mps 701 mmHg 68%
    06:00 +7°C° 0 mm 3 mps 701 mmHg 71%
    07:00 +5°C° 0 mm 3 mps 702 mmHg 73%
    08:00 +6°C° 0 mm 2 mps 702 mmHg 75%
    09:00 +6°C° 0.1 mm 2 mps 702 mmHg 75%
    10:00 +7°C° 0.1 mm 2 mps 703 mmHg 75%
    11:00 +7°C° 0.1 mm 2 mps 703 mmHg 75%
    12:00 +7°C° 0.2 mm 2 mps 703 mmHg 76%
    13:00 +7°C° 0.2 mm 2 mps 703 mmHg 76%
    14:00 +7°C° 0.2 mm 2 mps 703 mmHg 77%
    15:00 +6°C° 0.4 mm 2 mps 703 mmHg 78%
    16:00 +6°C° 0.4 mm 2 mps 704 mmHg 79%
    17:00 +5°C° 0.4 mm 2 mps 704 mmHg 80%
    18:00 +6°C° 0.6 mm 1 mps 704 mmHg 80%
    19:00 +5°C° 0.6 mm 1 mps 704 mmHg 79%
    20:00 +5°C° 0.6 mm 1 mps 704 mmHg 79%
    21:00 +5°C° 0.7 mm 1 mps 704 mmHg 80%
    22:00 +5°C° 0.7 mm 1 mps 704 mmHg 82%
    23:00 +4°C° 0.7 mm 1 mps 704 mmHg 83%

    17 December, Sunday

    Time Temperature Precipitation Wind Pressure Humidity
    00:00 +4°C° 0.9 mm 1 mps 704 mmHg 85%
    01:00 +4°C° 0.9 mm 1 mps 704 mmHg 87%
    02:00 +4°C° 0.9 mm 1 mps 704 mmHg 89%
    03:00 +2°C° 1 mm 2 mps 704 mmHg 90%
    04:00 +2°C° 1 mm 2 mps 704 mmHg 90%
    05:00 +2°C° 1 mm 2 mps 704 mmHg 91%
    06:00 +2°C° 0.5 mm 2 mps 704 mmHg 90%
    07:00 +2°C° 0.5 mm 2 mps 704 mmHg 90%
    08:00 +2°C° 0.5 mm 2 mps 705 mmHg 89%
    09:00 +2°C° 0.3 mm 2 mps 705 mmHg 88%
    10:00 +2°C° 0.3 mm 2 mps 706 mmHg 87%
    11:00 +2°C° 0.3 mm 2 mps 706 mmHg 86%
    12:00 +2°C° 0.3 mm 2 mps 706 mmHg 86%
    13:00 +2°C° 0.3 mm 2 mps 706 mmHg 87%
    14:00 +3°C° 0.3 mm 2 mps 706 mmHg 88%
    15:00 +2°C° 0.3 mm 2 mps 707 mmHg 89%
    16:00 +2°C° 0.3 mm 2 mps 707 mmHg 90%
    17:00 +2°C° 0.3 mm 2 mps 708 mmHg 90%
    18:00 +2°C° 0.3 mm 2 mps 708 mmHg 91%
    19:00 +2°C° 0.3 mm 2 mps 708 mmHg 91%
    20:00 +1°C° 0.3 mm 2 mps 709 mmHg 91%
    21:00 +1°C° 0.4 mm 2 mps 709 mmHg 90%
    22:00 +1°C° 0.4 mm 2 mps 710 mmHg 90%
    23:00 +1°C° 0.4 mm 2 mps 710 mmHg 90%
    Show more